Cardak current weather conditions

sailwx.info

Wind from 110 at 9 knots

Air temperature 8.0° C
Visibility: greater than 5.4 NM
Dewpoint -4.0° C

Last reported at 2019-Dec-06 13:50 UTC.
Time now 2019-Dec-06 15:19 UTC

Location: N 37°47' E 029°42'.
View on Google Maps.

See reports from other nearby stations

  
Tides and Currents Weather Stations Pressure Air Temp Water Temp Dewpoint Dewpoint Depression Visibility Wind Speed Wind Dir Waves Ship Positions
date/time (UTC)wind fromknots sea level pressurealtimeterstation pressurevisibilityair tempwater tempwave heightnotes
2019-Dec-06 13:50 110 9 5.4 8.0
2019-Dec-06 12:50 120 9 5.4 8.0
2019-Dec-06 11:50 110 11 5.4 7.0
2019-Dec-06 10:50 120 13 5.4 7.0
2019-Dec-06 09:50 120 13 5.4 6.0
2019-Dec-06 08:50 120 13 5.4 4.0
2019-Dec-06 07:50 120 13 5.4 2.0
2019-Dec-06 06:50 120 9 5.4 1.0
2019-Dec-06 05:50 150 9 5.4-1.0
2019-Dec-06 04:50 140 11 5.4-2.0
2019-Dec-06 03:50 100 8 5.4-1.0
2019-Dec-06 02:50 140 6 5.4-2.0
2019-Dec-06 01:50 5.4-1.0
2019-Dec-06 00:50 110 6 5.4-1.0
2019-Dec-05 23:50 100 12 5.4-1.0
2019-Dec-05 22:50 090 13 5.4 1.0
2019-Dec-05 21:50 100 12 5.4-0.0
2019-Dec-05 20:50 100 13 5.4 2.0
2019-Dec-05 19:50 070 13 5.4 2.0
2019-Dec-05 18:50 100 12 5.4 1.0
2019-Dec-05 17:50 080 13 5.4 2.0
2019-Dec-05 16:50 090 12 5.4 2.0
2019-Dec-05 15:50 070 12 5.4 3.0
2019-Dec-05 14:50 070 11 5.4 4.0
2019-Dec-05 13:50 080 13 5.4 6.0
2019-Dec-05 12:50 060 11 5.4 7.0
2019-Dec-05 11:50 050 11 5.4 7.0
2019-Dec-05 10:50 070 13 5.4 8.0
2019-Dec-05 09:50 080 15 5.4 6.0
2019-Dec-05 08:50 070 14 5.4 6.0
2019-Dec-05 07:50 070 14 5.4 5.0
2019-Dec-05 06:50 070 13 5.4 4.0
2019-Dec-05 05:50 080 13 5.4 3.0
2019-Dec-05 04:50 120 6 5.4 1.0
2019-Dec-05 03:50 100 7 5.4 2.0
2019-Dec-05 02:50 110 6 5.4 3.0
2019-Dec-05 01:50 5.4 3.0
2019-Dec-05 00:50 080 6 5.4 3.0
2019-Dec-04 23:50 070 7 5.4 4.0
2019-Dec-04 22:50 130 4 5.4 4.0
2019-Dec-04 21:50 5.4 4.0
2019-Dec-04 20:50 280 5 5.4 5.0
2019-Dec-04 19:50 300 5 5.4 5.0
2019-Dec-04 19:05 300 4 5.4 5.0
2019-Dec-04 18:50 300 4 5.4 4.0 Light rain.
2019-Dec-04 18:05 4.3 4.0 Light rain.
2019-Dec-04 17:50 4.3 4.0 Rain.
2019-Dec-04 16:50 220 5 2.7 4.0 Rain. Mist.
2019-Dec-04 15:50 300 6 2.7 5.0 Rain. Mist.